La Paz, Mexico

11:41 PM MDT on September 29, 2016 (GMT -0600)
Gen Manuel Marquez De Leon

Weather History for MMLP - June, 2013

Change the Weather History Date:

Friday, June 28, 2013

  Actual Average Record
Temperature  
Mean Temperature 90 °F -  
Max Temperature 104 °F 97 °F 104 °F (2004)
Min Temperature 75 °F 70 °F 66 °F (2010)
Cooling Degree Days 24    
Growing Degree Days 40 (Base 50)    
Moisture  
Dew Point 66 °F    
Average Humidity 49    
Maximum Humidity 83    
Minimum Humidity 26    
Precipitation  
Precipitation 0.00 in - - ()
Sea Level Pressure  
Sea Level Pressure 29.89 in    
Wind  
Wind Speed 9 mph ()    
Max Wind Speed 14 mph    
Max Gust Speed -    
Visibility 10.0 miles    
Events      
Averages and records for this station are not official NWS values.
T = Trace of Precipitation, MM = Missing Value Source: Averaged Metar Reports

Daily Weather History Graph

Daily Weather History Graph

Search for Another Location

Airport or City:

Trip Planner

Search our weather history database for the weather conditions in past years. The results will help you decide how hot, cold, wet, or windy it might be!

Date:

Astronomy

Jun. 28, 2013 Rise Set
Actual Time 6:36 AM MDT 8:13 PM MDT
Civil Twilight 6:10 AM MDT 8:38 PM MDT
Nautical Twilight 5:40 AM MDT 9:09 PM MDT
Astronomical Twilight 5:08 AM MDT 9:41 PM MDT
Moon No Moon Rise 12:06 PM MDT (6/28)
Length of Visible Light 14h 27m
Length of Day
13h 36m
Waning Gibbous, 65% of the Moon is Illuminated
Jun 28
Waning Gibbous
Jun 29
Last Quarter
Jul 8
New
Jul 15
First Quarter
Jul 22
Full

Hourly Weather History & Observations

Time (MDT) Temp. Heat Index Dew Point Humidity Pressure Visibility Wind Dir Wind Speed Gust Speed Precip Events Conditions
2:45 AM 78 °F - 72 °F 75% 29.96 in 2 mi South 8.9 mph - -   Partly Cloudy
5:50 AM 77 °F - 71 °F 76% 29.94 in 2 mi South 8.9 mph - -   Scattered Clouds
5:55 AM 75.2 °F - 69.8 °F 83% 30.00 in 8.0 mi South 9.2 mph - N/A   Mostly Cloudy
6:43 AM 75.2 °F - 69.8 °F 83% 29.95 in 10.0 mi South 10.4 mph - N/A   Mostly Cloudy
7:46 AM 77.0 °F - 69.8 °F 78% 29.96 in 10.0 mi SSE 9.2 mph - N/A   Mostly Cloudy
8:40 AM 78.8 °F - 69.8 °F 74% 30.01 in 10.0 mi SSW 9.2 mph - N/A   Scattered Clouds
8:50 AM 82 °F - 54 °F 27% 29.94 in 12 mi South 8.9 mph - -   Clear
9:42 AM 82.4 °F 85.4 °F 68.0 °F 62% 29.95 in 10.0 mi South 11.5 mph - N/A   Scattered Clouds
10:45 AM 86.0 °F 89.4 °F 68.0 °F 55% 29.93 in 10.0 mi SW 6.9 mph - N/A   Scattered Clouds
11:44 AM 89.6 °F 92.2 °F 66.2 °F 46% 29.96 in 12.0 mi South 11.5 mph - N/A   Partly Cloudy
11:50 AM 94 °F - 71 °F 37% 29.90 in 19 mi South 6.7 mph - -  
12:43 PM 96.8 °F 98.0 °F 62.6 °F 32% 29.87 in 12.0 mi SW 11.5 mph - N/A   Partly Cloudy
1:47 PM 96.8 °F 98.0 °F 62.6 °F 32% 29.85 in 12.0 mi Calm Calm - N/A   Partly Cloudy
2:46 PM 98.6 °F 100.0 °F 62.6 °F 30% 29.93 in 10.0 mi North - - N/A   Clear
2:50 PM 102 °F - 70 °F 26% 29.83 in 19 mi WNW 6.7 mph - -   Scattered Clouds
3:40 PM 98.6 °F 100.0 °F 62.6 °F 30% 29.80 in 10.0 mi NNW 9.2 mph - N/A   Clear
5:20 PM 96.8 °F 97.1 °F 60.8 °F 30% 29.77 in 10.0 mi WSW 11.5 mph - N/A   Clear
5:45 PM 96.8 °F 97.1 °F 60.8 °F 30% 29.90 in 10.0 mi SW 11.5 mph - N/A   Clear
5:50 PM 101 °F - 73 °F 31% 29.78 in 19 mi WSW 11.2 mph - -   Clear
6:55 PM 91.4 °F 91.4 °F 60.8 °F 36% 29.79 in 10.0 mi SW 11.5 mph - N/A   Clear
7:47 PM 86.0 °F 86.1 °F 60.8 °F 43% 29.81 in 10.0 mi South 11.5 mph - N/A   Scattered Clouds
8:40 PM 82.4 °F 82.9 °F 60.8 °F 48% 29.96 in 10.0 mi South 13.8 mph - N/A   Scattered Clouds
8:50 PM 86 °F - 65 °F 39% 29.83 in 2 mi South 11.2 mph - -   Scattered Clouds
9:45 PM 78.8 °F - 64.4 °F 61% 29.86 in 10.0 mi South 13.8 mph - N/A   Scattered Clouds
10:42 PM 75.2 °F - 62.6 °F 65% 29.88 in 10.0 mi South 13.8 mph - N/A   Scattered Clouds
11:45 PM 78 °F - 65 °F 55% 29.86 in 2 mi South 11.2 mph - -